Location: C.E.K. Mees Observatory
(42.7003°N, 77.4088°W)
Time: 12:19:50
(UTC-04:00)

OTV 5 (USA 277) - Pass Details

Date: 15 October 2017
Orbit: 404 x 417 km, 43.0° (Epoch: 07 September)

Event Time Altitude Azimuth Distance (km) Brightness Sun altitude
Rises 20:18:52 0° 274° (W) 2,353 ? -21.3°
Reaches altitude 10° 20:20:59 10° 275° (W) 1,490 ? -21.7°
Enters shadow 20:23:45 58° 282° (WNW) 491 ? -22.2°
